USA 340

Last updated on Thu Oct 03 2024 00:02:42 GMT+0000 (Coordinated Universal Time)

1 55138U 22144E 24275.47063241 .00000083 00000+0 00000+0 0 9991 2 55138 4.0373 65.6903 0001743 114.5130 66.7843 0.99550292 5516
UTC large
Height (km)
Speed (km/s)
/
Latitude / Longitude
Inclination (degrees)
Orbital Period (minutes)
Azimuth
Elevation
Range (km)
Doppler Factor

Next 0 passes for location: London (51.5072 / 0.1276)

Sorry there are no passes over London.